STARLINK-1924 (46755 NORAD) Tracking and Keplerian Element Data

This shows tracking and keplerian element data for the satellite.

Feedback or suggestion? Click here.




ElementValue
Catalog46755
NameSTARLINK-1924
Epoch Orbit515
Epoch Day328.16667824
Epoch Year2020
RAAN15.4182
Inclination53.0552
Eccentricity0.0001036
Argument of Perigee67.1158
Mean Anonmoly188.1797
Mean Motion15.62798164
Decay Rate-0.00018686
L11 46755U 20074S 20328.16667824 -.00018686 00000-0 -19836-3 0 9996
L22 46755 53.0552 15.4182 0001036 67.1158 188.1797 15.62798164 5159

Live tracking and technical data element details for STARLINK-1924 (NORAD 46755). STARLINK-1924 can be tracked NOW for your location showing map with azimuth and elevation plus other details from your city location.

Track the satellite on the map from your city or location and see movement details for azimuth, elevation, latitude, longitude, range, height, and movement on the map or in text.







IsCatalogInMostPopularTable: catalog: 46755, numindb: 9
Update: records affected: 1



GetName: 46755 STARLINK-1924

Hit Count: updated at: Tue, 24 Nov 2020 12:53:41 GMT